    Orbital elements:
        P/2014 OL465 (PANSTARRS)                                                    
    Epoch 2023 Feb. 25.0 TT = JDT 2460000.5                                         
    T 2023 Feb. 28.23175 TT                                 Rudenko                 
    q   3.3725329            (2000.0)            P               Q                  
    n   0.09707054     Peri.  267.70555     -0.74107864     +0.60818380             
    a   4.6889732      Node   309.59564     -0.36800539     -0.72228880             
    e   0.2807524      Incl.   21.66341     -0.56158213     -0.32925880             
    P  10.2                                                                         
    From 81 observations 2012 Mar. 21-2023 May 19.                                  
                                                                                    
    Ephemeris:
    Date    TT    R. A. (2000) Decl.     Delta      r    Elong.  Phase   m1    m2
    2023 04 20    14 49 48.7 -47 05 29   2.5340  3.3819   141.9    10.6  17.8
    ...
    2023 05 05    14 37 54.6 -46 52 34   2.4833  3.3883   149.1     8.8  17.8
    ...
    2023 05 13    14 31 29.4 -46 24 47   2.4780  3.3923   150.2     8.5  17.8
    ...
    2023 05 19    14 27 01.9 -45 55 29   2.4843  3.3956   149.6     8.7  17.8
    2023 05 20    14 26 20.1 -45 49 58   2.4862  3.3962   149.4     8.7  17.8
    2023 05 21    14 25 39.2 -45 44 18   2.4883  3.3968   149.1     8.8  17.8
    ...
    2023 05 27    14 21 55.2 -45 07 14   2.5062  3.4004   146.9     9.4  17.8
    ...
    2023 06 04    14 18 03.8 -44 11 29   2.5429  3.4057   142.7    10.4  17.8
    ...
    2023 06 19    14 14 48.6 -42 18 02   2.6486  3.4167   132.4    12.7  18.0
    
    M. P. C. Staff               (C) Copyright 2023 MPC           M.P.E.C. 2023-K66
    


    Read MPEC 2023-K65 Read MPEC 2023-K67


    MPEC number:

    Enter an MPEC number in one of the following forms:

    • 1997-B01 (the full form)
    • J97B01 (the packed version of the full form)
    • B01 (the abbreviated form)